Stanley, ID

3:57 PM MST on December 13, 2017 (GMT -0700)
Stanley

Weather History for KSNT - June, 2013

Change the Weather History Date:

Friday, June 14, 2013

  Actual Average Record
Temperature  
Mean Temperature 44 °F 49 °F  
Max Temperature 58 °F 66 °F 81 °F (1987)
Min Temperature 29 °F 33 °F 18 °F (1923)
Degree Days  
Heating Degree Days 21 16  
Month to date heating degree days 185 238  
Since 1 June heating degree days 185 238  
Since 1 July heating degree days 10046 10580  
Cooling Degree Days 0 0  
Month to date cooling degree days 0 0  
Year to date cooling degree days 0 0  
Since 1 June cooling degree days 0 0  
Moisture  
Dew Point 29 °F    
Average Humidity 62    
Maximum Humidity 100    
Minimum Humidity 24    
Precipitation  
Precipitation 0.10 in 0.05 in 1.56 in (1922)
Month to date precipitation 0.15 0.72  
Year to date precipitation 5.04 9.25  
Sea Level Pressure  
Sea Level Pressure 30.05 in    
Wind  
Wind Speed 3 mph (WNW)    
Max Wind Speed 10 mph    
Max Gust Speed 16 mph    
T = Trace of Precipitation, MM = Missing Value Source: NWS Daily Summary

Daily Weather History Graph

Daily Weather History Graph

Search for Another Location

Airport or City:

Trip Planner

Search our weather history database for the weather conditions in past years. The results will help you decide how hot, cold, wet, or windy it might be!

Date:

Astronomy

Jun. 14, 2013 Rise Set
Actual Time 5:55 AM MDT 9:24 PM MDT
Civil Twilight 5:18 AM MDT 10:01 PM MDT
Nautical Twilight 4:31 AM MDT 10:49 PM MDT
Astronomical Twilight 3:29 AM MDT 11:51 PM MDT
Moon 11:45 AM MDT (6/14) 12:22 AM MDT (6/14)
Length of Visible Light 16h 42m
Length of Day
15h 29m
Waxing Crescent, 31% of the Moon is Illuminated
Jun 14
Waxing Crescent
Jun 16
First Quarter
Jun 23
Full
Jun 29
Last Quarter
Jul 8
New

Hourly Weather History & Observations

Time (MDT) Temp. Windchill Dew Point Humidity Pressure Visibility Wind Dir Wind Speed Gust Speed Precip Events Conditions
12:51 AM 41.0 °F - 28.9 °F 62% 29.94 in - Calm Calm - N/A   Unknown
1:51 AM 35.1 °F 28.6 °F 34.0 °F 96% 29.99 in - North 8.1 mph - 0.04 in   Unknown
2:51 AM 34.0 °F 31.0 °F 33.1 °F 96% 29.99 in - SW 3.5 mph - 0.01 in   Unknown
3:51 AM 34.0 °F - 33.1 °F 96% 29.98 in - Calm Calm - N/A   Unknown
4:51 AM 33.1 °F - 32.0 °F 96% 30.01 in - Calm Calm - 0.05 in   Unknown
5:51 AM 33.1 °F - 33.1 °F 100% 30.04 in - Calm Calm - N/A   Unknown
6:51 AM 34.0 °F - 33.1 °F 96% 30.05 in - Calm Calm - N/A   Unknown
7:51 AM 36.0 °F - 34.0 °F 93% 30.07 in - Calm Calm - N/A   Unknown
8:51 AM 37.0 °F - 34.0 °F 89% 30.09 in - Calm Calm - N/A   Unknown
9:51 AM 41.0 °F - 36.0 °F 82% 30.09 in - Calm Calm - N/A   Unknown
10:51 AM 44.1 °F - 32.0 °F 63% 30.09 in - Calm Calm - N/A   Unknown
11:51 AM 46.0 °F - 32.0 °F 58% 30.09 in - Calm Calm - N/A   Unknown
12:51 PM 46.9 °F - 30.0 °F 52% 30.09 in - NNW 4.6 mph - N/A   Unknown
1:51 PM 48.9 °F - 26.1 °F 41% 30.10 in - NNW 4.6 mph - N/A   Unknown
2:51 PM 50.0 °F - 28.0 °F 43% 30.09 in - NNW 8.1 mph - N/A   Unknown
3:51 PM 54.0 °F - 24.1 °F 31% 30.06 in - Variable 3.5 mph - N/A   Unknown
4:51 PM 55.9 °F - 23.0 °F 28% 30.04 in - Variable 5.8 mph - N/A   Unknown
5:51 PM 57.9 °F - 23.0 °F 26% 30.04 in - NW 9.2 mph - N/A   Unknown
6:51 PM 57.0 °F - 21.9 °F 26% 30.03 in - NNW 5.8 mph - N/A   Unknown
7:51 PM 55.9 °F - 21.9 °F 27% 30.03 in - Variable 3.5 mph - N/A   Unknown
8:51 PM 48.9 °F - 27.0 °F 43% 30.06 in - Calm Calm - N/A   Unknown
9:51 PM 39.9 °F 37.8 °F 27.0 °F 60% 30.09 in - South 3.5 mph - N/A   Unknown
10:51 PM 36.0 °F 33.3 °F 27.0 °F 70% 30.10 in - SSE 3.5 mph - N/A   Unknown
11:51 PM 30.9 °F 27.5 °F 26.1 °F 82% 30.11 in - South 3.5 mph - N/A   Unknown